$DATE,$TIME,DM0600B,DM0602B,DM0604B,DM0614B,DM0616B,DM0618B,DM0624B,DM0628B,DM0630B,DM0634B,DM0606B,DM0608B,DM0610B
09/06/94,00:00:00,0,0,0,0,0,0,0,61,25,0,37,40,30
09/06/94,00:05:00,0,0,0,0,0,0,0,61,25,0,27,24,33
09/06/94,00:10:00,0,0,0,0,0,0,0,61,25,0,40,36,24
09/06/94,00:15:00,0,0,0,0,0,0,0,60,25,0,24,32,37
09/06/94,00:20:00,0,0,0,0,0,0,0,61,25,0,36,30,28
09/06/94,00:25:00,0,0,0,0,0,0,0,60,25,0,27,40,27
09/06/94,00:30:00,0,0,0,0,0,0,1,61,25,0,31,24,34
09/06/94,00:35:00,0,0,0,0,0,0,1,60,25,0,35,38,23
09/06/94,00:40:00,0,0,0,0,0,0,1,60,25,0,27,26,36
09/06/94,00:45:00,0,0,0,0,0,0,1,60,25,0,40,33,28
09/06/94,00:50:00,0,0,0,0,0,0,1,60,25,0,24,36,27
09/06/94,00:55:00,0,0,0,0,0,0,1,61,25,0,35,27,34
09/06/94,01:00:00,0,0,0,0,0,0,1,60,25,0,28,41,23
09/06/94,01:05:00,0,0,0,0,0,0,1,61,25,0,31,24,37
09/06/94,01:10:00,0,0,0,0,0,0,0,60,25,0,36,36,28
09/06/94,01:15:00,0,0,0,0,0,0,0,60,25,0,26,31,27
09/06/94,01:20:00,0,0,0,0,0,0,0,60,25,0,38,30,35
09/06/94,01:25:00,0,0,0,0,0,0,0,60,25,0,25,39,23
09/06/94,01:30:00,0,0,0,0,0,0,0,61,25,0,35,26,36
09/06/94,01:35:00,0,0,0,0,0,0,0,60,25,0,30,39,28
09/06/94,01:40:00,0,0,0,0,0,0,0,60,25,0,31,24,29
09/06/94,01:45:00,0,0,0,0,0,0,0,60,25,0,36,35,34
09/06/94,01:50:00,0,0,0,0,0,0,0,60,25,0,27,31,24
09/06/94,01:55:00,0,0,0,0,0,0,0,60,25,0,38,30,36
09/06/94,02:00:00,0,0,0,0,0,0,0,60,25,0,24,41,28
09/06/94,02:05:00,0,0,0,0,0,0,0,60,25,0,34,25,25
09/06/94,02:10:00,0,0,0,0,0,0,0,60,25,0,29,39,36
09/06/94,02:15:00,0,0,0,0,0,0,0,60,25,0,29,25,25
09/06/94,02:20:00,0,0,0,0,0,0,0,60,25,0,39,33,34
09/06/94,02:25:00,0,0,0,0,0,0,0,60,25,0,26,37,30
09/06/94,02:30:00,0,0,0,0,0,0,0,60,25,0,39,27,24
09/06/94,02:35:00,0,0,0,0,0,0,0,60,25,0,25,40,37
09/06/94,02:40:00,0,0,0,0,0,0,0,60,25,0,35,24,25
09/06/94,02:45:00,0,0,0,0,0,0,0,60,25,0,29,35,31
09/06/94,02:50:00,0,0,0,0,0,0,0,60,25,0,30,34,32
09/06/94,02:55:00,0,0,0,0,0,0,0,60,25,0,37,27,23
09/06/94,03:00:00,0,0,0,0,0,0,0,60,25,0,27,41,37
09/06/94,03:05:00,0,0,0,0,0,0,0,61,25,0,39,23,27
09/06/94,03:10:00,0,0,0,0,0,0,0,60,25,0,25,36,28
09/06/94,03:15:00,0,0,0,0,0,0,0,61,25,0,35,35,34
09/06/94,03:20:00,0,0,0,0,0,0,0,60,25,0,27,28,24
09/06/94,03:25:00,0,0,0,0,0,0,0,61,25,0,33,41,36
09/06/94,03:30:00,0,0,0,0,0,0,0,60,25,0,33,23,28
09/06/94,03:35:00,0,0,0,0,0,0,0,60,25,0,31,23,28
09/06/94,03:40:00,0,0,0,0,0,0,0,60,25,0,31,23,28
09/06/94,03:45:00,0,0,0,0,0,0,0,60,25,0,31,23,28
09/06/94,03:50:00,0,0,0,0,0,0,0,60,25,0,31,23,28
09/06/94,03:55:00,0,0,0,0,0,0,0,60,25,0,31,23,28
09/06/94,04:00:00,0,0,0,0,0,0,0,60,25,0,31,23,28
09/06/94,04:05:00,0,0,0,0,0,0,0,60,25,0,31,23,28
09/06/94,04:10:00,0,0,0,0,0,0,0,61,25,0,33,33,24
09/06/94,04:15:00,0,0,0,0,0,0,0,61,25,0,32,36,33
09/06/94,04:20:00,0,0,0,0,0,0,0,61,25,0,29,27,31
09/06/94,04:25:00,0,0,0,0,0,0,0,61,25,0,38,41,25
09/06/94,04:30:00,0,0,0,0,0,0,0,61,25,0,26,24,36
09/06/94,04:35:00,0,0,0,0,0,0,0,61,25,0,38,36,24
09/06/94,04:40:00,0,0,0,0,0,0,0,60,25,0,25,30,33
09/06/94,04:45:00,0,0,0,0,0,0,0,61,25,0,34,30,31
09/06/94,04:50:00,0,0,0,0,0,0,0,60,25,0,32,39,23
09/06/94,04:55:00,0,0,0,0,0,0,0,60,25,0,29,26,36
09/06/94,05:00:00,0,0,0,0,0,0,0,61,25,0,38,39,24
09/06/94,05:05:00,0,0,0,0,0,0,0,60,25,0,26,23,33
09/06/94,05:10:00,0,0,0,0,0,0,0,61,25,0,38,35,31
09/06/94,05:15:00,0,0,0,0,0,0,0,61,65,0,25,31,23
09/06/94,05:20:00,0,0,0,0,0,0,0,61,25,0,33,31,37
09/06/94,05:25:00,0,0,0,0,0,0,0,60,25,0,31,39,25
09/06/94,05:30:00,0,0,0,0,0,0,0,61,25,0,29,26,33
09/06/94,05:35:00,0,0,0,0,0,0,0,60,25,0,38,39,31
09/06/94,05:40:00,0,0,0,0,0,0,0,61,25,0,25,24,23
09/06/94,05:45:00,0,0,0,0,0,0,0,61,25,0,38,35,37
09/06/94,05:50:00,0,0,0,0,0,0,0,61,25,0,25,31,27
09/06/94,05:55:00,0,0,0,0,0,0,0,61,25,0,34,30,31
09/06/94,06:00:00,0,0,0,0,0,0,0,61,25,0,32,40,32
09/06/94,06:05:00,0,0,0,0,0,0,0,61,25,0,30,25,23
09/06/94,06:10:00,0,0,0,0,0,0,0,61,25,0,38,39,36
09/06/94,06:15:00,0,0,0,0,0,0,0,61,25,0,25,24,28
09/06/94,06:20:00,0,0,0,0,0,0,0,60,25,0,37,35,29
09/06/94,06:25:00,0,0,0,0,0,0,0,61,48,0,26,37,33
09/06/94,06:30:00,0,0,0,0,0,0,0,61,48,0,34,29,26
09/06/94,06:35:00,0,0,0,0,0,0,0,61,48,0,42,41,39
09/06/94,06:40:00,0,0,0,0,0,0,0,61,48,0,28,40,26
09/06/94,06:45:00,0,0,0,0,0,0,0,96,49,0,41,41,43
09/06/94,06:50:00,0,0,0,0,0,0,0,94,49,0,42,43,30
09/06/94,06:55:00,0,0,0,0,0,0,0,92,49,0,42,42,46
09/06/94,07:00:00,0,0,0,0,0,0,0,92,52,0,43,42,30
09/06/94,07:05:00,0,0,0,0,0,0,0,92,48,0,43,42,46
09/06/94,07:10:00,0,0,0,0,0,0,0,93,48,0,43,43,31
09/06/94,07:15:00,0,0,0,0,0,0,0,92,49,0,43,41,43
09/06/94,07:20:00,0,0,0,0,0,0,0,77,49,0,44,45,30
09/06/94,07:25:00,0,0,0,0,0,0,0,77,49,0,42,41,41
09/06/94,07:30:00,0,0,0,0,0,0,0,77,49,0,44,44,30
09/06/94,07:35:00,0,0,0,0,0,0,0,78,49,0,43,42,40
09/06/94,07:40:00,0,0,0,0,0,0,0,77,49,0,44,43,30
09/06/94,07:45:00,0,0,0,0,0,0,0,77,49,0,43,43,39
09/06/94,07:50:00,0,0,0,0,0,0,0,77,49,0,43,41,31
09/06/94,07:55:00,0,0,0,0,0,0,0,77,52,0,44,45,39
09/06/94,08:00:00,0,0,0,0,0,0,0,77,49,0,44,42,30
09/06/94,08:05:00,0,0,0,0,0,0,0,77,49,0,43,43,38
09/06/94,08:10:00,0,0,0,0,0,0,0,77,49,0,43,41,31
09/06/94,08:15:00,0,0,0,0,0,0,0,77,49,0,43,44,38
09/06/94,08:20:00,0,0,0,0,0,0,0,77,49,0,44,42,30
09/06/94,08:25:00,0,0,0,0,0,0,0,77,49,0,44,45,39
09/06/94,08:30:00,0,0,0,0,0,0,0,77,49,0,43,41,29
09/06/94,08:35:00,0,0,0,0,0,0,0,77,49,0,44,44,40
09/06/94,08:40:00,0,0,0,0,0,0,0,77,49,0,43,42,29
09/06/94,08:45:00,0,0,0,0,0,0,0,77,49,0,43,44,41
09/06/94,08:50:00,0,0,0,0,0,0,0,77,49,0,43,41,29
09/06/94,08:55:00,0,0,0,0,0,0,0,77,49,0,44,44,41
09/06/94,09:00:00,0,0,0,0,0,0,0,80,49,0,42,40,29
09/06/94,09:05:00,0,0,0,0,0,0,0,81,49,0,43,44,43
09/06/94,09:10:00,0,0,0,0,0,0,0,80,49,0,43,42,28
09/06/94,09:15:00,0,0,0,0,0,0,0,80,49,0,43,43,42
09/06/94,09:20:00,0,0,0,0,0,0,0,81,49,0,44,43,29
09/06/94,09:25:00,0,0,0,0,0,0,0,80,49,0,41,40,43
09/06/94,09:30:00,0,0,0,0,0,0,0,81,49,0,43,45,28
09/06/94,09:35:00,0,0,0,0,0,0,0,81,49,0,31,39,41
09/06/94,09:40:00,0,0,0,0,0,0,0,87,49,0,43,44,29
09/06/94,09:45:00,0,0,0,0,0,0,0,80,49,0,41,40,40
09/06/94,09:50:00,0,0,0,0,0,0,0,80,49,0,41,43,29
09/06/94,09:55:00,0,0,0,0,0,0,0,80,49,0,43,43,41
09/06/94,10:00:00,0,0,0,0,0,0,0,80,49,0,41,42,28
09/06/94,10:05:00,0,0,0,0,0,0,0,80,49,0,43,42,40
09/06/94,10:10:00,0,0,0,0,0,0,0,80,49,0,43,44,29
09/06/94,10:15:00,0,0,0,0,0,0,0,80,44,0,41,40,42
09/06/94,10:20:00,0,0,0,0,0,0,0,80,44,0,43,44,28
09/06/94,10:25:00,0,0,0,0,0,0,0,80,44,0,42,42,41
09/06/94,10:30:00,0,0,12,0,0,0,0,80,44,0,42,41,28
09/06/94,10:35:00,0,0,0,0,0,0,0,80,44,0,44,44,43
09/06/94,10:40:00,0,0,11,0,0,0,0,80,44,0,41,40,28
09/06/94,10:45:00,0,0,15,0,0,0,0,80,50,0,42,41,43
09/06/94,10:50:00,0,0,0,0,0,0,0,80,44,0,42,43,29
09/06/94,10:55:00,0,0,0,0,0,0,0,80,45,0,42,40,43
09/06/94,11:00:00,0,0,0,0,0,0,0,79,45,0,43,43,30
09/06/94,11:05:00,0,0,0,0,0,0,0,80,44,0,40,44,41
09/06/94,11:10:00,0,0,0,0,0,0,0,80,34,0,31,41,31
09/06/94,11:15:00,0,0,0,0,0,0,0,79,33,0,44,43,38
09/06/94,11:20:00,0,0,0,0,0,0,0,79,33,0,28,43,32
09/06/94,11:25:00,0,0,0,0,0,0,0,80,33,0,39,42,37
09/06/94,11:30:00,0,0,0,0,0,0,0,79,33,0,36,42,33
09/06/94,11:35:00,0,0,0,0,0,0,0,78,32,0,32,43,32
09/06/94,11:40:00,0,0,0,0,0,0,0,77,32,0,44,29,35
09/06/94,11:45:00,0,0,0,0,0,0,0,77,28,0,28,34,29
09/06/94,11:50:00,0,0,0,0,0,0,0,77,28,0,40,44,38
09/06/94,11:55:00,0,0,0,0,0,0,0,77,32,0,31,26,26
09/06/94,12:00:00,0,0,0,0,0,0,0,77,28,0,36,40,42
09/06/94,12:05:00,0,0,0,0,0,0,0,77,28,0,39,35,27
09/06/94,12:10:00,0,0,0,0,0,0,0,77,28,0,30,31,43
09/06/94,12:15:00,0,0,0,0,0,0,0,76,28,0,43,43,27
09/06/94,12:20:00,0,0,0,0,0,0,0,77,28,0,27,38,41
09/06/94,12:25:00,0,0,0,0,0,0,0,77,28,0,38,44,28
09/06/94,12:30:00,0,0,0,0,0,0,0,77,28,0,34,26,37
09/06/94,12:35:00,0,0,0,0,0,0,0,77,28,0,32,39,33
09/06/94,12:40:00,0,0,0,0,0,0,0,77,28,0,43,37,31
09/06/94,12:45:00,0,0,0,0,0,0,0,77,28,0,28,29,34
09/06/94,12:50:00,0,0,0,0,0,0,0,77,28,0,40,42,31
09/06/94,12:55:00,0,0,0,0,0,0,0,77,28,0,32,30,36
09/06/94,13:00:00,0,0,0,0,0,0,0,77,28,0,33,34,28
09/06/94,13:05:00,0,0,0,0,0,0,0,76,28,0,43,44,38
09/06/94,13:10:00,0,0,0,0,0,0,0,77,28,0,27,25,27
09/06/94,13:15:00,0,0,0,0,0,0,0,77,28,0,40,39,42
09/06/94,13:20:00,0,0,0,0,0,0,0,76,28,0,31,41,27
09/06/94,13:25:00,0,0,0,0,0,0,0,77,28,0,34,28,43
09/06/94,13:30:00,0,0,0,0,0,0,0,77,28,0,44,43,28
09/06/94,13:35:00,0,0,0,0,0,0,0,77,28,0,27,29,41
09/06/94,13:40:00,0,0,0,0,0,0,0,77,28,0,39,35,31
09/06/94,13:45:00,0,0,0,0,0,0,0,77,28,0,34,43,35
09/06/94,13:50:00,0,0,0,0,0,0,0,77,28,0,31,26,33
09/06/94,13:55:00,0,0,0,0,0,0,0,76,28,0,43,41,31
09/06/94,14:00:00,0,0,0,0,0,0,0,76,28,0,41,43,34
09/06/94,14:05:00,0,0,0,0,0,0,0,76,28,0,28,39,27
09/06/94,14:10:00,0,0,0,0,0,0,0,76,28,0,37,43,40
09/06/94,14:15:00,0,0,0,0,0,0,0,76,28,0,38,27,27
09/06/94,14:20:00,0,0,0,0,0,0,0,77,28,0,31,41,43
09/06/94,14:25:00,0,0,0,0,0,0,0,76,28,0,44,35,27
09/06/94,14:30:00,0,0,0,0,0,0,0,77,28,0,27,30,42
09/06/94,14:35:00,0,0,0,0,0,0,0,77,28,0,39,44,30
09/06/94,14:40:00,0,0,0,0,0,0,0,77,28,0,31,26,35
09/06/94,14:45:00,0,0,0,0,0,0,0,77,28,0,34,36,35
09/06/94,14:50:00,0,0,0,0,0,0,0,77,28,0,41,43,28
09/06/94,14:55:00,0,0,0,0,0,0,0,77,28,0,29,26,38
09/06/94,15:00:00,0,0,0,0,0,0,0,77,28,0,41,40,27
09/06/94,15:05:00,0,0,0,0,0,0,0,77,28,0,30,35,40
09/06/94,15:10:00,0,0,0,0,0,0,0,77,28,0,34,31,28
09/06/94,15:15:00,0,0,0,0,0,0,0,77,28,0,43,44,42
09/06/94,15:20:00,0,0,0,0,0,0,0,77,28,0,27,26,28
09/06/94,15:25:00,0,0,0,0,0,0,0,77,28,0,41,37,41
09/06/94,15:30:00,0,0,0,0,0,0,0,77,28,0,29,44,30
09/06/94,15:35:00,0,0,0,0,0,0,0,77,28,0,34,38,36
09/06/94,15:40:00,0,0,0,0,0,0,0,77,28,0,43,44,33
09/06/94,15:45:00,0,0,0,0,0,0,0,77,28,0,28,27,28
09/06/94,15:50:00,0,0,0,0,0,0,0,77,28,0,40,42,39
09/06/94,15:55:00,0,0,0,0,0,0,0,77,28,0,30,31,26
09/06/94,16:00:00,0,0,0,0,0,0,0,76,28,0,35,34,40
09/06/94,16:05:00,0,0,0,0,0,0,0,77,28,0,42,45,26
09/06/94,16:10:00,0,0,0,0,0,0,0,77,28,0,28,25,42
09/06/94,16:15:00,0,0,0,0,0,0,0,77,28,0,41,39,28
09/06/94,16:20:00,0,0,0,0,0,0,0,76,28,0,29,36,41
09/06/94,16:25:00,0,0,0,0,0,0,0,77,28,0,34,33,30
09/06/94,16:30:00,0,0,0,0,0,0,0,76,28,0,42,44,36
09/06/94,16:35:00,0,0,0,0,0,0,0,77,28,0,28,27,32
09/06/94,16:40:00,0,0,0,0,0,0,0,77,28,0,41,37,34
09/06/94,16:45:00,0,0,0,0,0,0,0,76,28,0,29,44,34
09/06/94,16:50:00,0,0,0,0,0,0,0,77,28,0,35,26,28
09/06/94,16:55:00,0,0,0,0,0,0,0,76,28,0,43,40,37
09/06/94,17:00:00,0,0,0,0,0,0,0,77,28,0,28,38,26
09/06/94,17:05:00,0,0,0,0,0,0,0,77,28,0,41,30,40
09/06/94,17:10:00,0,0,0,0,0,0,0,76,28,0,29,44,27
09/06/94,17:15:00,0,0,0,0,0,0,0,77,39,0,35,31,42
09/06/94,17:20:00,0,0,0,0,0,0,0,76,28,0,43,34,28
09/06/94,17:25:00,0,0,0,0,0,0,0,77,28,0,29,45,41
09/06/94,17:30:00,0,0,0,0,0,0,0,76,28,0,42,27,30
09/06/94,17:35:00,0,0,0,0,0,0,0,76,28,0,31,39,37
09/06/94,17:40:00,0,0,0,0,0,0,0,76,28,0,35,45,33
09/06/94,17:45:00,0,0,0,0,0,0,0,76,28,0,41,27,29
09/06/94,17:50:00,0,0,0,0,0,0,0,77,50,0,30,41,38
09/06/94,17:55:00,0,0,0,0,0,0,0,76,28,0,41,38,26
09/06/94,18:00:00,0,0,0,0,0,0,0,77,74,0,29,31,39
09/06/94,18:05:00,0,0,0,0,0,0,0,76,28,0,37,44,27
09/06/94,18:10:00,0,0,0,0,0,0,0,76,28,0,38,28,41
09/06/94,18:15:00,0,0,0,0,0,0,0,77,28,0,30,36,27
09/06/94,18:20:00,0,0,0,0,0,0,0,76,28,0,42,44,41
09/06/94,18:25:00,0,0,0,0,0,0,0,77,28,0,28,27,28
09/06/94,18:30:00,0,0,0,0,0,0,0,76,28,0,38,41,40
09/06/94,18:35:00,0,0,0,0,0,0,0,77,28,0,34,35,30
09/06/94,18:40:00,0,0,0,0,0,0,0,76,28,0,33,32,39
09/06/94,18:45:00,0,0,0,0,0,0,0,76,28,0,43,44,33
09/06/94,18:50:00,0,0,0,0,0,0,0,77,28,0,27,27,29
09/06/94,18:55:00,0,0,0,0,0,0,0,76,28,0,39,36,37
09/06/94,19:00:00,0,0,0,0,0,0,0,77,28,0,31,41,26
09/06/94,19:05:00,0,0,0,0,0,0,0,77,28,0,33,29,40
09/06/94,19:10:00,0,0,0,0,0,0,0,76,28,0,44,42,27
09/06/94,19:15:00,0,0,0,0,0,0,0,76,28,0,28,40,41
09/06/94,19:20:00,0,0,0,0,0,0,0,77,28,0,40,43,27
09/06/94,19:25:00,0,0,0,0,0,0,0,77,28,0,28,31,41
09/06/94,19:30:00,0,0,0,0,0,0,0,77,28,0,34,34,30
09/06/94,19:35:00,0,0,0,0,0,0,0,77,28,0,41,44,36
09/06/94,19:40:00,0,0,0,0,0,0,0,77,28,0,28,27,33
09/06/94,19:45:00,0,0,0,0,0,0,0,76,28,0,41,41,32
09/06/94,19:50:00,0,0,0,0,0,0,0,77,28,0,29,41,34
09/06/94,19:55:00,0,0,0,0,0,0,0,77,28,0,35,41,28
09/06/94,20:00:00,0,0,0,0,0,0,0,77,30,0,39,34,37
09/06/94,20:05:00,0,0,0,0,0,0,0,84,31,0,31,32,30
09/06/94,20:10:00,0,0,0,0,0,0,0,77,38,0,42,44,43
09/06/94,20:15:00,0,0,0,0,0,0,0,77,34,0,42,38,28
09/06/94,20:20:00,0,0,0,0,0,0,0,159,34,0,42,44,43
09/06/94,20:25:00,0,0,0,0,0,0,0,77,34,0,43,29,29
09/06/94,20:30:00,0,0,0,0,0,0,0,77,34,0,43,38,41
09/06/94,20:35:00,0,0,0,0,0,0,0,77,48,0,35,44,30
09/06/94,20:40:00,0,0,0,0,0,0,0,138,49,0,34,29,47
09/06/94,20:45:00,0,0,0,0,0,0,0,138,49,0,45,43,31
09/06/94,20:50:00,0,0,0,0,0,0,0,138,49,0,41,44,46
09/06/94,20:55:00,0,0,0,0,0,0,0,138,49,0,42,40,30
09/06/94,21:00:00,0,0,0,0,0,0,0,138,49,0,43,45,44
09/06/94,21:05:00,0,0,0,0,0,0,0,138,49,0,42,40,31
09/06/94,21:10:00,0,0,0,0,0,0,0,152,49,0,43,44,41
09/06/94,21:15:00,0,0,0,0,0,0,0,158,49,0,43,41,32
09/06/94,21:20:00,0,0,0,0,0,0,0,160,50,0,43,44,38
09/06/94,21:25:00,0,0,0,0,0,0,0,159,49,0,44,44,40
09/06/94,21:30:00,0,0,0,0,0,0,0,159,49,0,43,42,33
09/06/94,21:35:00,0,0,0,0,0,0,0,158,49,0,42,42,47
09/06/94,21:40:00,0,0,0,0,0,0,0,159,49,0,44,45,31
09/06/94,21:45:00,0,0,0,0,0,0,0,141,49,0,43,42,47
09/06/94,21:50:00,0,0,0,0,0,0,0,143,49,0,43,44,31
09/06/94,21:55:00,0,0,0,0,0,0,0,143,49,0,42,41,47
09/06/94,22:00:00,0,0,0,0,0,0,0,143,49,0,44,45,30
09/06/94,22:05:00,0,0,0,0,0,0,0,143,51,0,43,42,46
09/06/94,22:10:00,0,0,0,0,0,0,0,143,51,0,44,44,30
09/06/94,22:15:00,0,0,0,0,0,0,0,143,51,0,42,42,45
09/06/94,22:20:00,0,0,0,0,0,0,0,143,51,0,44,44,30
09/06/94,22:25:00,0,0,0,0,0,0,0,81,51,0,43,42,43
09/06/94,22:30:00,0,0,0,0,0,0,0,82,51,0,42,44,28
09/06/94,22:35:00,0,0,0,0,0,0,0,81,51,0,43,42,42
09/06/94,22:40:00,0,0,0,0,0,0,0,81,49,0,29,44,29
09/06/94,22:45:00,0,0,0,0,0,0,0,82,52,0,40,42,43
09/06/94,22:50:00,0,0,0,0,0,0,0,81,52,0,32,44,29
09/06/94,22:55:00,0,0,0,0,0,0,0,81,52,0,35,42,43
09/06/94,23:00:00,0,0,0,0,0,0,0,81,52,0,44,31,31
09/06/94,23:05:00,0,0,0,0,0,0,0,81,52,0,29,36,42
09/06/94,23:10:00,0,0,0,0,0,0,0,81,52,0,41,45,31
09/06/94,23:15:00,0,0,0,0,0,0,0,81,56,0,30,40,38
09/06/94,23:20:00,0,0,0,0,0,0,0,81,52,0,35,44,34
09/06/94,23:25:00,0,0,0,0,0,0,0,81,52,0,44,39,33
09/06/94,23:30:00,0,0,0,0,0,0,0,81,52,0,29,46,35
09/06/94,23:35:00,0,0,0,0,0,0,0,81,49,0,42,27,32
09/06/94,23:40:00,0,0,0,0,0,0,0,81,49,0,42,41,36
09/06/94,23:45:00,0,0,0,0,0,0,0,81,49,0,41,42,30
09/06/94,23:50:00,0,0,0,0,0,0,1,81,49,0,37,42,38
09/06/94,23:55:00,0,0,0,0,0,0,1,81,49,0,33,35,28
09/07/94,00:00:00,0,0,0,0,0,0,1,81,91,0,45,34,40
